• In Kazakhstan
  • List of Countries
  • For 7 days
  • Water Temperature
  • Satellite Maps
  • Weather Map
  • News
  • Weather Widgets
  • user-avatar
    Login

    Hourly Weather Gruszowa

    Today, 23 April, Tuesday

    Time Temperature Precipitation Wind Pressure Humidity
    00:00 +5°C° 0 mm 4 mps 728 mmHg 60%
    01:00 +4°C° 0 mm 4 mps 728 mmHg 60%
    02:00 +4°C° 0 mm 4 mps 728 mmHg 59%
    03:00 +4°C° 0 mm 4 mps 728 mmHg 59%
    04:00 +3°C° 0 mm 4 mps 728 mmHg 59%
    05:00 +3°C° 0 mm 4 mps 728 mmHg 58%
    06:00 +3°C° 0 mm 5 mps 728 mmHg 57%
    07:00 +5°C° 0 mm 5 mps 728 mmHg 55%
    08:00 +6°C° 0 mm 5 mps 728 mmHg 53%
    09:00 +8°C° 0 mm 6 mps 728 mmHg 50%
    10:00 +10°C° 0 mm 7 mps 728 mmHg 46%
    11:00 +12°C° 0 mm 7 mps 728 mmHg 43%
    12:00 +14°C° 0 mm 7 mps 728 mmHg 43%
    13:00 +15°C° 0 mm 7 mps 728 mmHg 42%
    14:00 +16°C° 0 mm 7 mps 727 mmHg 42%
    15:00 +15°C° 0 mm 7 mps 727 mmHg 44%
    16:00 +15°C° 0 mm 7 mps 727 mmHg 47%
    17:00 +14°C° 0 mm 7 mps 727 mmHg 49%
    18:00 +13°C° 0 mm 6 mps 726 mmHg 53%
    19:00 +12°C° 0 mm 5 mps 726 mmHg 56%
    20:00 +10°C° 0 mm 4 mps 726 mmHg 59%
    21:00 +10°C° 0 mm 4 mps 726 mmHg 60%
    22:00 +10°C° 0 mm 4 mps 726 mmHg 61%
    23:00 +9°C° 0 mm 3 mps 726 mmHg 62%

    Tomorrow, 24 April, Wednesday

    Time Temperature Precipitation Wind Pressure Humidity
    00:00 +9°C° 0.2 mm 3 mps 726 mmHg 67%
    01:00 +8°C° 0.2 mm 3 mps 726 mmHg 72%
    02:00 +8°C° 0.2 mm 2 mps 726 mmHg 77%
    03:00 +7°C° 0.2 mm 3 mps 726 mmHg 79%
    04:00 +7°C° 0.2 mm 3 mps 726 mmHg 81%
    05:00 +7°C° 0.2 mm 3 mps 726 mmHg 82%
    06:00 +8°C° 0 mm 3 mps 726 mmHg 81%
    07:00 +8°C° 0 mm 4 mps 726 mmHg 79%
    08:00 +8°C° 0 mm 4 mps 727 mmHg 78%
    09:00 +11°C° 0 mm 4 mps 727 mmHg 73%
    10:00 +12°C° 0 mm 4 mps 727 mmHg 68%
    11:00 +14°C° 0 mm 4 mps 728 mmHg 64%
    12:00 +15°C° 0.1 mm 4 mps 728 mmHg 64%
    13:00 +15°C° 0.1 mm 4 mps 728 mmHg 65%
    14:00 +17°C° 0.1 mm 4 mps 727 mmHg 66%
    15:00 +16°C° 0.5 mm 3 mps 727 mmHg 71%
    16:00 +16°C° 0.5 mm 3 mps 727 mmHg 75%
    17:00 +15°C° 0.5 mm 2 mps 727 mmHg 80%
    18:00 +14°C° 0 mm 2 mps 727 mmHg 82%
    19:00 +13°C° 0 mm 2 mps 727 mmHg 85%
    20:00 +12°C° 0 mm 2 mps 727 mmHg 88%
    21:00 +12°C° 0 mm 2 mps 727 mmHg 88%
    22:00 +10°C° 0 mm 2 mps 727 mmHg 88%
    23:00 +9°C° 0 mm 2 mps 727 mmHg 89%

    Day after tomorrow, 25 April, Thursday

    Time Temperature Precipitation Wind Pressure Humidity
    00:00 +9°C° 0 mm 2 mps 727 mmHg 89%
    01:00 +9°C° 0 mm 2 mps 727 mmHg 89%
    02:00 +9°C° 0 mm 2 mps 727 mmHg 90%
    03:00 +9°C° 0 mm 2 mps 727 mmHg 89%
    04:00 +10°C° 0 mm 2 mps 727 mmHg 88%
    05:00 +10°C° 0 mm 2 mps 727 mmHg 87%
    06:00 +11°C° 0 mm 3 mps 727 mmHg 82%
    07:00 +13°C° 0 mm 3 mps 727 mmHg 77%
    08:00 +14°C° 0 mm 4 mps 728 mmHg 72%
    09:00 +17°C° 0 mm 4 mps 728 mmHg 66%
    10:00 +19°C° 0 mm 5 mps 728 mmHg 59%
    11:00 +21°C° 0 mm 5 mps 728 mmHg 53%
    12:00 +21°C° 0 mm 5 mps 728 mmHg 51%
    13:00 +22°C° 0 mm 6 mps 728 mmHg 49%
    14:00 +23°C° 0 mm 6 mps 727 mmHg 47%
    15:00 +22°C° 0 mm 5 mps 727 mmHg 52%
    16:00 +21°C° 0 mm 4 mps 727 mmHg 56%
    17:00 +21°C° 0 mm 3 mps 726 mmHg 61%
    18:00 +19°C° 0 mm 3 mps 726 mmHg 67%
    19:00 +18°C° 0 mm 3 mps 726 mmHg 73%
    20:00 +16°C° 0 mm 3 mps 726 mmHg 79%
    21:00 +16°C° 0 mm 3 mps 726 mmHg 81%
    22:00 +14°C° 0 mm 3 mps 726 mmHg 83%
    23:00 +14°C° 0 mm 3 mps 726 mmHg 86%

    26 April, Friday

    Time Temperature Precipitation Wind Pressure Humidity
    00:00 +14°C° 0 mm 3 mps 726 mmHg 86%
    01:00 +14°C° 0 mm 3 mps 726 mmHg 86%
    02:00 +13°C° 0 mm 3 mps 726 mmHg 87%
    03:00 +13°C° 0 mm 3 mps 726 mmHg 87%
    04:00 +13°C° 0 mm 3 mps 725 mmHg 88%
    05:00 +12°C° 0 mm 3 mps 725 mmHg 89%
    06:00 +14°C° 0 mm 3 mps 725 mmHg 81%
    07:00 +15°C° 0 mm 4 mps 725 mmHg 73%
    08:00 +17°C° 0 mm 5 mps 725 mmHg 65%
    09:00 +20°C° 0 mm 5 mps 725 mmHg 61%
    10:00 +21°C° 0 mm 5 mps 725 mmHg 56%
    11:00 +22°C° 0 mm 5 mps 725 mmHg 52%
    12:00 +23°C° 0 mm 5 mps 725 mmHg 50%
    13:00 +25°C° 0 mm 5 mps 725 mmHg 48%
    14:00 +25°C° 0 mm 5 mps 725 mmHg 46%
    15:00 +25°C° 0 mm 5 mps 724 mmHg 48%
    16:00 +25°C° 0 mm 4 mps 724 mmHg 51%
    17:00 +25°C° 0 mm 4 mps 724 mmHg 53%
    18:00 +22°C° 0 mm 3 mps 724 mmHg 61%
    19:00 +20°C° 0 mm 3 mps 723 mmHg 68%
    20:00 +18°C° 0 mm 3 mps 723 mmHg 76%
    21:00 +17°C° 0.2 mm 2 mps 723 mmHg 78%
    22:00 +16°C° 0.2 mm 2 mps 723 mmHg 80%
    23:00 +16°C° 0.2 mm 2 mps 723 mmHg 82%

    27 April, Saturday

    Time Temperature Precipitation Wind Pressure Humidity
    00:00 +16°C° 0.1 mm 2 mps 723 mmHg 82%
    01:00 +15°C° 0.1 mm 2 mps 723 mmHg 83%
    02:00 +15°C° 0.1 mm 2 mps 722 mmHg 83%
    03:00 +15°C° 0.4 mm 2 mps 722 mmHg 84%
    04:00 +15°C° 0.4 mm 2 mps 722 mmHg 85%
    05:00 +14°C° 0.4 mm 2 mps 722 mmHg 87%
    06:00 +15°C° 0.1 mm 2 mps 722 mmHg 83%
    07:00 +17°C° 0.1 mm 2 mps 722 mmHg 80%
    08:00 +18°C° 0.1 mm 3 mps 722 mmHg 77%
    09:00 +18°C° 1.2 mm 2 mps 722 mmHg 75%
    10:00 +19°C° 1.2 mm 2 mps 722 mmHg 73%
    11:00 +21°C° 1.2 mm 1 mps 722 mmHg 70%
    12:00 +21°C° 1 mm 1 mps 722 mmHg 70%
    13:00 +21°C° 1 mm 1 mps 722 mmHg 70%
    14:00 +20°C° 1 mm 1 mps 721 mmHg 70%
    15:00 +19°C° 1.4 mm 2 mps 721 mmHg 72%
    16:00 +19°C° 1.4 mm 2 mps 721 mmHg 74%
    17:00 +18°C° 1.4 mm 2 mps 721 mmHg 76%
    18:00 +17°C° 1.9 mm 2 mps 721 mmHg 81%
    19:00 +15°C° 1.9 mm 2 mps 721 mmHg 87%
    20:00 +13°C° 1.9 mm 3 mps 721 mmHg 92%
    21:00 +12°C° 0.7 mm 3 mps 722 mmHg 93%
    22:00 +11°C° 0.7 mm 3 mps 722 mmHg 94%
    23:00 +11°C° 0.7 mm 3 mps 722 mmHg 95%

    28 April, Sunday

    Time Temperature Precipitation Wind Pressure Humidity
    00:00 +10°C° 0 mm 3 mps 722 mmHg 95%
    01:00 +10°C° 0 mm 3 mps 722 mmHg 95%
    02:00 +10°C° 0 mm 3 mps 723 mmHg 95%
    03:00 +10°C° 0 mm 3 mps 723 mmHg 94%
    04:00 +9°C° 0 mm 3 mps 723 mmHg 94%
    05:00 +8°C° 0 mm 4 mps 723 mmHg 94%
    06:00 +8°C° 0.1 mm 4 mps 723 mmHg 94%
    07:00 +8°C° 0.1 mm 4 mps 724 mmHg 93%
    08:00 +8°C° 0.1 mm 4 mps 724 mmHg 93%
    09:00 +8°C° 0.3 mm 4 mps 724 mmHg 93%
    10:00 +8°C° 0.3 mm 4 mps 725 mmHg 93%
    11:00 +7°C° 0.3 mm 4 mps 725 mmHg 93%
    12:00 +7°C° 0.4 mm 4 mps 725 mmHg 93%
    13:00 +7°C° 0.4 mm 5 mps 725 mmHg 93%
    14:00 +6°C° 0.4 mm 5 mps 726 mmHg 93%
    15:00 +6°C° 0.2 mm 5 mps 726 mmHg 93%
    16:00 +6°C° 0.2 mm 5 mps 726 mmHg 92%
    17:00 +6°C° 0.2 mm 4 mps 726 mmHg 92%
    18:00 +6°C° 0.1 mm 4 mps 726 mmHg 92%
    19:00 +7°C° 0.1 mm 3 mps 726 mmHg 93%
    20:00 +6°C° 0.1 mm 2 mps 727 mmHg 93%
    21:00 +6°C° 0.1 mm 2 mps 727 mmHg 93%
    22:00 +6°C° 0.1 mm 2 mps 727 mmHg 93%
    23:00 +6°C° 0.1 mm 2 mps 727 mmHg 93%
    Show more